Regional Weather Roundup
Issued by NWS

Home | Current Version | Previous Version | Text Only | Print | Product List | Glossary Off
Versions: 1 2 3 4 5 6 7 8 9 10 11 12 13 14 15 16 17 18 19 20 21 22 23 24 25 26 27 28 29 30 31 32 33 34 35 36 37 38 39 40 41 42 43 44 45 46 47 48 49 50

000
ASUS43 KLOT 312110
RWRIL

ILLINOIS REGIONAL WEATHER ROUNDUP
NATIONAL WEATHER SERVICE CHICAGO/ROMEOVILLE IL
400 PM CDT THU JUL 31 2014

NOTE: "FAIR" INDICATES FEW OR NO CLOUDS BELOW 12,000 FEET WITH NO
SIGNIFICANT WEATHER AND/OR OBSTRUCTIONS TO VISIBILITY.

* THESE STATIONS ARE NOT UNDER NWS QUALITY CONTROL. THEY ALSO MAY NOT
  REPORT WEATHER SUCH AS PRECIPITATION OR FOG.

ILZ001-002-007-009-015-016-024-312200-
NORTHWEST ILLINOIS

CITY           SKY/WX    TMP DP  RH WIND       PRES   REMARKS
MOLINE         MOSUNNY   81  58  45 SW8       30.04F HX  81
STERLING*      MOSUNNY   82  61  47 W13G18    30.05S HX  83
SAVANNA*       SUNNY     83  52  34 NW9       30.04S HX  81
$$

ILZ003-004-008-010-011-017-018-312200-
NORTH CENTRAL ILLINOIS

CITY           SKY/WX    TMP DP  RH WIND       PRES   REMARKS
ROCKFORD       MOSUNNY   82  58  43 W12       30.05S HX  82
FREEPORT*      SUNNY     80  60  51 W9G17     30.07S HX  80
ROCHELLE*      SUNNY     81  55  41 W14       30.05S HX  81
DE KALB*       MOSUNNY   78  59  52 W9        30.05S
PERU*          MOSUNNY   81  61  49 W7        30.05F HX  82
$$

ILZ005-006-012>014-019>023-312200-
NORTHEAST ILLINOIS

CITY           SKY/WX    TMP DP  RH WIND       PRES   REMARKS
CHICAGO-OHARE  MOSUNNY   83  54  36 W15G23    30.02S HX  82
CHICAGO-MIDWAY MOSUNNY   84  57  39 W16G22    30.02S HX  83
AURORA         MOSUNNY   79  60  52 W7        30.04F HX  80
LANSING*       MOSUNNY   80  58  47 W13G20    30.03S HX  81
JOLIET*        SUNNY     81  57  44 W7        30.04F HX  81
WAUKEGAN       MOSUNNY   82  56  40 W10G17    30.00F HX  82
DUPAGE AIRPORT PTSUNNY   82  58  43 W13       30.03S HX  82
KANKAKEE*      PTSUNNY   80  64  57 W10       30.06S HX  81
WHEELING       PTSUNNY   82  55  39 W8G21     30.03S HX  81
MORRIS*        SUNNY     81  62  51 W9        30.04F HX  82
ROMEOVILLE*    SUNNY     81  57  44 W13       30.04S HX  81
NORTHERLY ISL    N/A     82  52  35 W8          N/A  HX  81
$$

LMZ740>746-312200-
SOUTHERN LAKE MICHIGAN

STATION/POSITION SKY/WX   TEMP    WIND        PRES    VSBY  WAVE
                          AIR SEA DIR/SP/G                  HT/PER
                          (F)     (DEG/KT/KT) (MB)    (MI)  (FT/S)
SOUTHERN BUOY              66 64  150/  8/ 10 1016.2F         1
WAUKEGAN HARBOR            80     260/ 11/ 17   N/A
HARRISON CRIB              79     270/ 13/ 17   N/A
BURNHAM HARBOR             81     280/  7/ 13   N/A
CALUMET HARBOR             81     240/  7/ 13 1015.2F
BURNS HARBOR               76     290/  3/  4   N/A
MICHIGAN CITY              76     230/  4/  5   N/A
MICHIGAN CITY 6N           75 72  250/  2/  4   N/A           1
ST. JOSEPH                 71 69  170/  2/  4   N/A           1
$$

ILZ025>027-034>036-040-047-049-050-058-095>099-312200-
WEST-CENTRAL ILLINOIS

CITY           SKY/WX    TMP DP  RH WIND       PRES   REMARKS
QUINCY         SUNNY     81  57  43 SW3       30.07F HX  81
GALESBURG*     MOSUNNY   85  63  48 SW5       30.07S HX  86
MACOMB*        SUNNY     79  61  52 CALM      30.09F HX  80
JACKSONVILLE*  MOSUNNY   83  61  48 NW3       30.08F HX  83
PITTSFIELD*    MOSUNNY   81  60  49 CALM      30.08F HX  81
$$

ILZ028>032-037-038-041>044-048-051>054-059>061-312200-
CENTRAL ILLINOIS

CITY           SKY/WX    TMP DP  RH WIND       PRES   REMARKS
PONTIAC        SUNNY     82  61  47 SW8       30.06S HX  83
DECATUR        PTSUNNY   82  60  47 W7        30.08F HX  82
PEORIA         MOSUNNY   83  58  42 SW8       30.06F HX  83
LACON*         MOSUNNY   81  57  44 SW8       30.05S HX  81
LINCOLN*       MOSUNNY   84  57  40 NW3       30.04F HX  83
SPRINGFIELD    PTSUNNY   82  61  48 W7        30.07F HX  83
TAYLORVILLE    SUNNY     81  59  47 CALM      30.07F HX  81
$$

ILZ033-039-045-046-055>057-062-063-312200-
EAST-CENTRAL ILLINOIS

CITY           SKY/WX    TMP DP  RH WIND       PRES   REMARKS
CHAMPAIGN      SUNNY     80  58  46 W6        30.08F HX  80
DANVILLE*      SUNNY     78  62  56 W5        30.05F HAZE    HX  80
RANTOUL*       SUNNY     81  60  47 W6        30.08F HX  82
MATTOON        SUNNY     81  60  48 NW6       30.07F HX  82
PARIS*         MOSUNNY   81  62  53 W3        30.08F HX  82
$$

ILZ079-100>102-312200-
SOUTHWEST ILLINOIS

CITY           SKY/WX    TMP DP  RH WIND       PRES   REMARKS
ALTON          MOSUNNY   82  59  44 NE5       30.06F HX  82
CAHOKIA*       CLOUDY    84  60  44 SE6       30.05F HX  84
SPARTA*        PTSUNNY   81  59  47 SE6       30.07F HX  81
$$

ILZ064>066-069>071-074>076-080>082-084>086-088>090-092>094-312200-
SOUTH-CENTRAL ILLINOIS

CITY           SKY/WX    TMP DP  RH WIND       PRES   REMARKS
CARBONDALE     CLOUDY    84  61  45 SE6       30.06F HX  84
CAIRO*         MOSUNNY   81  65  58 SW5       30.08F HX  83
EFFINGHAM*     MOSUNNY   85  49  28 CALM      30.06F HX  82
MARION         PTSUNNY   82  63  51 SW9       30.08F HX  83
MT. VERNON     MOSUNNY   84  57  39 SW6       30.07F HX  83
CENTRALIA*     MOSUNNY   89  55  30 S5        30.07F HX  87
SALEM*         MOSUNNY  N/A N/A N/A S5        30.07F
METROPOLIS*    MOSUNNY   83  56  40 SW8       30.07F HX  82
$$

ILZ067-068-072-073-078-083-087-091-312200-
SOUTHEAST ILLINOIS

CITY           SKY/WX    TMP DP  RH WIND       PRES   REMARKS
LAWRENCEVILLE  MOSUNNY   82  61  48 SW6       30.08S HX  83
FLORA*         SUNNY     82  58  43 S7        30.07F HX  82
FAIRFIELD*     MOSUNNY   84  61  45 SE5       30.06F HX  84
HARRISBURG*    MOSUNNY   79  64  59 CALM      30.08F HX  81
ROBINSON*      MOSUNNY   81  64  57 NW3       30.08F HX  82
CARMI*         MOSUNNY   84  66  54 CALM      30.06F HX  86
$$

ABBREVIATIONS USED IN REMARKS
   TC - TEMPERATURE IN CELSIUS
  WCI - WIND CHILL INDEX
   HX - HEAT INDEX
  VSB - VISIBILITY
$$




USA.gov is the U.S. government's official web portal to all federal, state and local government web resources and services.